User: anonymous   Login
Location: Caltech
(34.1382°N, 118.1253°W)
Time: 23:58:59
(UTC-08:00)
Language:

Cosmos 1937 Rocket - Orbit

View from above orbital plane
View from above orbital plane
View from above satellite
View from above satellite

Ground track
Ground track

The orbit data is extracted from the following two-line orbital elements,

1 19039U 88029B   14353.90202488  .00000396  00000-0  13891-3 0  2073
2 19039 074.0468 175.4774 0024274 216.7171 246.8294 14.38109451399981
Epoch (UTC): 19 December 2014 21:38:54
Eccentricity: 0.0024274
inclination: 74.0468°
perigee height: 747 km
apogee height: 782 km
right ascension of ascending node: 175.4774°
argument of perigee: 216.7171°
revolutions per day: 14.38109451
mean anomaly at epoch: 246.8294°
orbit number at epoch: 39998

The dashed part of the orbit path shows where the satellite is in the earth's shadow,  

DLR